Change the Weather History Date:

Friday, January 27, 2012

  Actual Average Record
Temperature  
Mean Temperature 50 °F -  
Max Temperature 55 °F 35 °F 55 °F (2002)
Min Temperature 43 °F 22 °F 8 °F (2003)
Degree Days  
Heating Degree Days 16    
Moisture  
Dew Point 48 °F    
Average Humidity 93    
Maximum Humidity 100    
Minimum Humidity 54    
Precipitation  
Precipitation 0.22 in - - ()
Sea Level Pressure  
Sea Level Pressure 29.55 in    
Wind  
Wind Speed 10 mph (SSW)    
Max Wind Speed 24 mph    
Max Gust Speed 38 mph    
Visibility 4 miles    
Events Rain    
Averages and records for this station are not official NWS values.
T = Trace of Precipitation, MM = Missing Value Source: NWS Daily Summary

Daily Weather History Graph

Daily Weather History Graph

Search for Another Location

Airport or City:

Trip Planner

Search our weather history database for the weather conditions in past years. The results will help you decide how hot, cold, wet, or windy it might be!

Date:

Astronomy

Jan. 27, 2012 Rise Set
Actual Time 7:08 AM EST 5:04 PM EST
Civil Twilight 6:39 AM EST 5:33 PM EST
Nautical Twilight 6:06 AM EST 6:06 PM EST
Astronomical Twilight 5:33 AM EST 6:39 PM EST
Moon 9:00 AM EST (1/27) 9:55 PM EST (1/27)
Length of Visible Light 10h 54m
Length of Day
9h 55m
Waxing Crescent, 19% of the Moon is Illuminated
Jan 27
Waxing Crescent
Jan 30
First Quarter
Feb 7
Full
Feb 14
Last Quarter
Feb 21
New

Hourly Weather History & Observations

Time (EST) Temp. Windchill Dew Point Humidity Pressure Visibility Wind Dir Wind Speed Gust Speed Precip Events Conditions
12:34 AM 44.6 °F 42.2 °F 44.6 °F 100% 29.81 in 2.5 mi East 4.6 mph - 0.00 in Rain Light Rain
12:44 AM 44.6 °F 42.2 °F 44.6 °F 100% 29.80 in 2.5 mi SSE 4.6 mph - 0.00 in Rain Light Rain
12:53 AM 46.0 °F 43.1 °F 45.0 °F 96% 29.80 in 3.0 mi East 5.8 mph - 0.00 in Rain Light Rain
1:53 AM 46.9 °F - 46.9 °F 100% 29.76 in 3.0 mi SE 5.8 mph - 0.00 in Rain Light Rain
2:40 AM 46.4 °F 44.3 °F 46.4 °F 100% 29.73 in 2.5 mi SE 4.6 mph - 0.00 in Rain Light Rain
2:53 AM 46.9 °F - 46.9 °F 100% 29.73 in 2.5 mi SE 3.5 mph - 0.00 in Rain Light Rain
3:12 AM 46.4 °F 44.3 °F 46.4 °F 100% 29.72 in 2.0 mi SE 4.6 mph - 0.00 in Rain Light Rain
3:36 AM 46.4 °F 45.2 °F 46.4 °F 100% 29.70 in 1.8 mi ESE 3.5 mph - 0.00 in Rain Light Rain
3:45 AM 46.4 °F - 46.4 °F 100% 29.70 in 2.0 mi Calm Calm - 0.00 in Rain Light Rain
3:53 AM 46.9 °F - 46.9 °F 100% 29.69 in 1.8 mi ESE 3.5 mph - 0.00 in Rain Light Rain
4:35 AM 48.2 °F - 48.2 °F 100% 29.66 in 2.0 mi SE 4.6 mph - 0.00 in Rain Light Rain
4:53 AM 48.0 °F - 48.0 °F 100% 29.65 in 1.2 mi Calm Calm - 0.00 in Rain Light Rain
5:02 AM 48.2 °F - 48.2 °F 100% 29.64 in 0.5 mi SE 3.5 mph - 0.00 in Rain Light Rain
5:11 AM 48.2 °F - 48.2 °F 100% 29.64 in 0.2 mi SSE 5.8 mph - 0.00 in Rain Light Rain
5:53 AM 48.9 °F - 48.9 °F 100% 29.62 in 0.2 mi South 6.9 mph - 0.00 in Rain Light Rain
6:36 AM 50.0 °F - 50.0 °F 100% 29.60 in 0.8 mi SSW 11.5 mph - 0.00 in Rain Light Rain
6:43 AM 50.0 °F - 50.0 °F 100% 29.60 in 2.0 mi SSW 10.4 mph - 0.00 in   Overcast
6:53 AM 50.0 °F - 50.0 °F 100% 29.60 in 2.0 mi SSW 9.2 mph - 0.00 in   Overcast
7:09 AM 50.0 °F - 50.0 °F 100% 29.58 in 4.0 mi South 11.5 mph 19.6 mph N/A   Overcast
7:31 AM 50.0 °F - 50.0 °F 100% 29.58 in 5.0 mi SSW 15.0 mph 20.7 mph N/A   Overcast
7:38 AM 50.0 °F - 50.0 °F 100% 29.57 in 2.5 mi SSW 13.8 mph - 0.00 in Rain Light Rain
7:46 AM 51.8 °F - 51.8 °F 100% 29.57 in 2.5 mi SSW 17.3 mph - 0.00 in Rain Light Rain
7:53 AM 51.8 °F - 51.8 °F 100% 29.57 in 2.5 mi SSW 18.4 mph - N/A Rain Light Rain
8:31 AM 51.8 °F - 51.8 °F 100% 29.54 in 1.5 mi SSW 20.7 mph 28.8 mph 0.10 in Rain Heavy Rain
8:41 AM 51.8 °F - 51.8 °F 100% 29.54 in 2.5 mi SSW 20.7 mph 29.9 mph 0.10 in Rain Light Rain
8:53 AM 52.0 °F - 52.0 °F 100% 29.52 in 2.5 mi SSW 17.3 mph 26.5 mph 0.10 in Rain Light Rain
9:00 AM 51.8 °F - 51.8 °F 100% 29.52 in 1.0 mi SSW 17.3 mph 31.1 mph 0.00 in Rain Light Rain
9:28 AM 51.8 °F - 51.8 °F 100% 29.51 in 0.8 mi SSW 17.3 mph 25.3 mph 0.01 in Rain Light Rain
9:53 AM 53.1 °F - 53.1 °F 100% 29.49 in 0.8 mi SSW 19.6 mph 28.8 mph 0.01 in   Overcast
10:37 AM 51.8 °F - 51.8 °F 100% 29.46 in 1.5 mi SSW 18.4 mph 27.6 mph 0.04 in Rain Light Rain
10:53 AM 53.6 °F - 53.6 °F 100% 29.46 in 1.8 mi SW 21.9 mph 34.5 mph N/A   Overcast
11:21 AM 53.6 °F - 53.6 °F 100% 29.45 in 0.8 mi SW 24.2 mph 33.4 mph N/A   Overcast
11:32 AM 53.6 °F - 53.6 °F 100% 29.44 in 1.2 mi SW 12.7 mph 29.9 mph 0.03 in Rain Light Rain
11:44 AM 51.8 °F - 51.8 °F 100% 29.44 in 3.0 mi SW 17.3 mph 28.8 mph 0.05 in Rain Light Rain
11:53 AM 52.0 °F - 52.0 °F 100% 29.43 in 3.0 mi SW 17.3 mph 25.3 mph 0.06 in Rain Rain
12:01 PM 51.8 °F - 51.8 °F 100% 29.43 in 6.0 mi SW 17.3 mph - 0.00 in Rain Light Rain
12:30 PM 51.8 °F - 51.8 °F 100% 29.40 in 2.5 mi SW 13.8 mph - 0.03 in Rain Rain
12:48 PM 51.8 °F - 51.8 °F 100% 29.35 in 3.0 mi South 12.7 mph 18.4 mph 0.05 in Rain Light Rain
12:53 PM 52.0 °F - 52.0 °F 100% 29.38 in 3.0 mi SSW 17.3 mph 23.0 mph 0.05 in Rain Light Rain
1:10 PM 53.6 °F - 53.6 °F 100% 29.36 in 6.0 mi SW 13.8 mph - 0.00 in   Mostly Cloudy
1:26 PM 53.6 °F - 51.8 °F 94% 29.35 in 5.0 mi SW 9.2 mph 19.6 mph 0.00 in   Mostly Cloudy
1:53 PM 52.0 °F - 52.0 °F 100% 29.39 in 5.0 mi SW 17.3 mph 25.3 mph 0.00 in   Overcast
2:01 PM 51.8 °F - 51.8 °F 100% 29.36 in 5.0 mi SW 13.8 mph 25.3 mph N/A   Overcast
2:30 PM 51.8 °F - 51.8 °F 100% 29.33 in 6.0 mi SW 10.4 mph 23.0 mph N/A   Overcast
2:53 PM 53.1 °F - 52.0 °F 96% 29.36 in 6.0 mi SW 16.1 mph 20.7 mph N/A   Overcast
3:41 PM 55.4 °F - 53.6 °F 94% 29.35 in 8.0 mi WSW 6.9 mph - N/A   Overcast
3:48 PM 55.4 °F - 53.6 °F 94% 29.34 in 10.0 mi West 10.4 mph - N/A   Overcast
3:53 PM 55.9 °F - 52.0 °F 87% 29.35 in 10.0 mi West 18.4 mph 26.5 mph N/A   Overcast
4:36 PM 55.4 °F - 46.4 °F 72% 29.39 in 10.0 mi WNW 23.0 mph 34.5 mph N/A   Mostly Cloudy
4:49 PM 53.6 °F - 44.6 °F 72% 29.40 in 10.0 mi WNW 21.9 mph 38.0 mph N/A   Overcast
4:53 PM 54.0 °F - 44.1 °F 69% 29.41 in 10.0 mi WNW 20.7 mph 38.0 mph N/A   Overcast
5:53 PM 52.0 °F - 39.0 °F 61% 29.48 in 10.0 mi WNW 17.3 mph 38.0 mph N/A   Mostly Cloudy
6:53 PM 48.9 °F - 33.1 °F 54% 29.57 in 10.0 mi WNW 18.4 mph 38.0 mph N/A   Clear
7:53 PM 46.9 °F - 33.1 °F 59% 29.63 in 10.0 mi West 17.3 mph 29.9 mph N/A   Clear
8:53 PM 46.4 °F 38.7 °F 32.0 °F 57% 29.67 in 10.0 mi WNW 20.7 mph 32.2 mph N/A   Clear
9:53 PM 44.1 °F 36.5 °F 30.9 °F 60% 29.73 in 10.0 mi NW 17.3 mph 31.1 mph N/A   Clear
10:53 PM 44.1 °F 37.7 °F 30.0 °F 58% 29.79 in 10.0 mi WNW 12.7 mph 29.9 mph N/A   Scattered Clouds
11:53 PM 43.0 °F 35.1 °F 28.9 °F 58% 29.82 in 10.0 mi WNW 17.3 mph 29.9 mph N/A   Partly Cloudy